Weather History for Beatrice, NE

Change the Weather History Date:

Saturday, February 16, 2013

  Actual Average Record
Temperature  
Mean Temperature 26 °F -  
Max Temperature 40 °F 39 °F 67 °F (1981)
Min Temperature 12 °F 16 °F -13 °F (1979)
Degree Days  
Heating Degree Days 39    
Moisture  
Dew Point 15 °F    
Average Humidity 64    
Maximum Humidity 86    
Minimum Humidity 35    
Precipitation  
Precipitation 0.00 in - - ()
Sea Level Pressure  
Sea Level Pressure 30.14 in    
Wind  
Wind Speed 6 mph (South)    
Max Wind Speed 17 mph    
Max Gust Speed 20 mph    
Visibility 10 miles    
Events      
Averages and records for this station are not official NWS values.
T = Trace of Precipitation, MM = Missing Value Source: NWS Daily Summary

Daily Weather History Graph

Daily Weather History Graph

Search for Another Location

Airport:

Trip Planner

Search our weather history database for the weather conditions in past years. The results will help you decide how hot, cold, wet, or windy it might be!

Date:

Astronomy

Feb. 16, 2013 Rise Set
Actual Time 7:18 AM CST 6:04 PM CST
Civil Twilight 6:50 AM CST 6:31 PM CST
Nautical Twilight 6:19 AM CST 7:03 PM CST
Astronomical Twilight 5:47 AM CST 7:35 PM CST
Moon 10:31 AM CST (2/16) 12:05 AM CST (2/16)
Length of Visible Light 11h 41m
Length of Day
10h 45m
Waxing Crescent, 39% of the Moon is Illuminated
Feb 16
Waxing Crescent
Feb 17
First Quarter
Feb 25
Full
Mar 4
Last Quarter
Mar 11
New

Hourly Weather History & Observations

Time (CST) Temp. Windchill Dew Point Humidity Pressure Visibility Wind Dir Wind Speed Gust Speed Precip Events Conditions
12:15 AM 20.1 °F 11.3 °F 14.5 °F 79% 30.34 in 10.0 mi WNW 6.9 mph - N/A   Overcast
12:35 AM 16.5 °F 9.4 °F 11.5 °F 81% 30.33 in 10.0 mi NW 4.6 mph - N/A   Scattered Clouds
12:55 AM 17.4 °F - 13.3 °F 84% 30.33 in 10.0 mi Calm Calm - N/A   Clear
1:15 AM 15.6 °F - 10.9 °F 82% 30.32 in 10.0 mi Calm Calm - N/A   Clear
1:35 AM 14.9 °F 6.1 °F 11.3 °F 86% 30.32 in 10.0 mi West 5.8 mph - N/A   Clear
1:55 AM 13.8 °F 3.7 °F 9.9 °F 84% 30.33 in 10.0 mi WNW 6.9 mph - N/A   Clear
2:15 AM 14.5 °F 7.1 °F 10.6 °F 84% 30.33 in 10.0 mi WNW 4.6 mph - N/A   Clear
2:35 AM 13.6 °F - 9.7 °F 84% 30.32 in 10.0 mi Calm Calm - N/A   Clear
2:55 AM 13.8 °F - 10.2 °F 86% 30.32 in 10.0 mi Calm Calm - N/A   Clear
3:15 AM 13.8 °F - 10.4 °F 86% 30.31 in 10.0 mi Calm Calm - N/A   Clear
3:35 AM 12.6 °F 3.4 °F 9.0 °F 85% 30.31 in 10.0 mi West 5.8 mph - N/A   Clear
3:55 AM 13.1 °F 4.0 °F 9.5 °F 86% 30.30 in 10.0 mi West 5.8 mph - N/A   Clear
4:15 AM 12.9 °F - 9.1 °F 85% 30.29 in 10.0 mi Calm Calm - N/A   Clear
4:35 AM 13.5 °F 5.8 °F 9.7 °F 85% 30.29 in 10.0 mi West 4.6 mph - N/A   Clear
4:55 AM 12.9 °F - 9.1 °F 85% 30.29 in 10.0 mi Calm Calm - N/A   Clear
5:15 AM 13.1 °F 7.1 °F 9.5 °F 86% 30.28 in 10.0 mi WSW 3.5 mph - N/A   Clear
5:35 AM 14.0 °F 6.5 °F 10.2 °F 85% 30.28 in 10.0 mi WSW 4.6 mph - N/A   Scattered Clouds
5:55 AM 14.0 °F - 10.0 °F 84% 30.28 in 10.0 mi Calm Calm - N/A   Scattered Clouds
6:15 AM 15.1 °F 9.4 °F 11.1 °F 84% 30.27 in 10.0 mi SW 3.5 mph - N/A   Clear
6:35 AM 16.5 °F 11.0 °F 12.2 °F 83% 30.25 in 10.0 mi SW 3.5 mph - N/A   Mostly Cloudy
6:55 AM 16.7 °F - 12.6 °F 84% 30.25 in 10.0 mi Calm Calm - N/A   Mostly Cloudy
7:15 AM 17.6 °F 12.3 °F 13.1 °F 83% 30.24 in 10.0 mi SSE 3.5 mph - N/A   Mostly Cloudy
7:35 AM 18.0 °F 11.1 °F 13.5 °F 83% 30.24 in 10.0 mi South 4.6 mph - N/A   Overcast
7:55 AM 18.9 °F 12.1 °F 14.0 °F 81% 30.24 in 10.0 mi SSW 4.6 mph - N/A   Overcast
8:15 AM 19.4 °F 11.5 °F 14.5 °F 81% 30.23 in 10.0 mi SSW 5.8 mph - N/A   Overcast
8:35 AM 20.3 °F 11.5 °F 14.9 °F 80% 30.22 in 10.0 mi SSW 6.9 mph - N/A   Overcast
8:55 AM 21.9 °F 11.7 °F 16.0 °F 78% 30.21 in 10.0 mi SSW 9.2 mph - N/A   Overcast
9:15 AM 23.4 °F 13.5 °F 16.0 °F 73% 30.20 in 10.0 mi SSW 9.2 mph - N/A   Overcast
9:35 AM 24.6 °F 15.1 °F 17.4 °F 74% 30.20 in 10.0 mi SSW 9.2 mph - N/A   Overcast
12:15 PM 31.3 °F 21.6 °F 19.6 °F 62% 30.12 in 10.0 mi SSW 12.7 mph - N/A   Overcast
12:35 PM 32.0 °F 23.6 °F 21.0 °F 64% 30.11 in 10.0 mi South 10.4 mph - N/A   Overcast
12:55 PM 32.4 °F 24.6 °F 20.7 °F 62% 30.10 in 10.0 mi South 9.2 mph - N/A   Overcast
1:15 PM 32.9 °F 22.8 °F 20.7 °F 61% 30.09 in 10.0 mi South 15.0 mph - N/A   Overcast
1:35 PM 34.2 °F 25.2 °F 21.9 °F 61% 30.08 in 10.0 mi South 12.7 mph - N/A   Overcast
1:55 PM 36.1 °F 27.3 °F 20.7 °F 53% 30.06 in 10.0 mi South 13.8 mph 18.4 mph N/A   Overcast
2:15 PM 37.4 °F 28.5 °F 18.1 °F 46% 30.06 in 10.0 mi South 15.0 mph - N/A   Overcast
2:35 PM 38.7 °F 29.8 °F 17.2 °F 42% 30.05 in 10.0 mi South 16.1 mph - N/A   Overcast
2:55 PM 38.7 °F 29.5 °F 14.7 °F 38% 30.04 in 10.0 mi SSW 17.3 mph - N/A   Overcast
3:15 PM 39.2 °F 31.6 °F 14.7 °F 37% 30.04 in 10.0 mi SSW 12.7 mph - N/A   Overcast
3:35 PM 39.7 °F 31.9 °F 14.0 °F 35% 30.03 in 10.0 mi SSW 13.8 mph 19.6 mph N/A   Overcast
3:55 PM 39.4 °F 33.2 °F 14.5 °F 36% 30.03 in 10.0 mi South 9.2 mph - N/A   Overcast
4:15 PM 40.1 °F 34.1 °F 14.7 °F 36% 30.03 in 10.0 mi South 9.2 mph - N/A   Overcast
4:35 PM 39.7 °F 34.3 °F 15.4 °F 37% 30.03 in 10.0 mi SSE 8.1 mph - N/A   Overcast
4:55 PM 39.7 °F 34.9 °F 15.6 °F 38% 30.02 in 10.0 mi SSE 6.9 mph - N/A   Overcast
5:15 PM 40.1 °F 36.1 °F 16.5 °F 39% 30.02 in 10.0 mi SE 5.8 mph - N/A   Overcast
5:35 PM 39.2 °F 35.9 °F 17.8 °F 42% 30.01 in 10.0 mi South 4.6 mph - N/A   Overcast
5:55 PM 39.7 °F 37.6 °F 17.1 °F 40% 30.02 in 10.0 mi SE 3.5 mph - N/A   Overcast
6:15 PM 38.8 °F 35.4 °F 18.9 °F 45% 30.01 in 10.0 mi ESE 4.6 mph - N/A   Overcast
6:35 PM 38.3 °F 34.8 °F 18.5 °F 45% 30.01 in 10.0 mi SE 4.6 mph - N/A   Overcast
6:55 PM 38.1 °F 33.7 °F 18.3 °F 45% 30.01 in 10.0 mi ESE 5.8 mph - N/A   Overcast
7:15 PM 37.4 °F 32.1 °F 18.9 °F 47% 30.01 in 10.0 mi ESE 6.9 mph - N/A   Overcast
7:35 PM 37.0 °F 31.0 °F 18.5 °F 47% 30.01 in 10.0 mi SE 8.1 mph - N/A   Overcast
7:55 PM 36.3 °F 30.8 °F 18.7 °F 49% 30.01 in 10.0 mi SE 6.9 mph - N/A   Overcast
8:15 PM 34.9 °F 30.8 °F 18.9 °F 52% 30.01 in 10.0 mi SSE 4.6 mph - N/A   Scattered Clouds
8:35 PM 34.5 °F 29.4 °F 18.5 °F 52% 30.01 in 10.0 mi SE 5.8 mph - N/A   Clear
8:55 PM 34.5 °F 30.4 °F 18.5 °F 52% 30.01 in 10.0 mi ESE 4.6 mph - N/A   Clear
9:15 PM 33.3 °F 28.9 °F 18.5 °F 55% 30.00 in 10.0 mi SE 4.6 mph - N/A   Clear
9:35 PM 32.9 °F 26.7 °F 18.9 °F 56% 30.00 in 10.0 mi SE 6.9 mph - N/A   Clear
9:55 PM 32.4 °F 25.3 °F 19.2 °F 58% 30.00 in 10.0 mi SE 8.1 mph - N/A   Clear
10:15 PM 32.0 °F 25.6 °F 19.2 °F 59% 30.00 in 10.0 mi SE 6.9 mph - N/A   Clear
10:35 PM 32.0 °F 25.6 °F 19.0 °F 59% 30.00 in 10.0 mi SE 6.9 mph - N/A   Clear
10:55 PM 32.0 °F 25.6 °F 18.9 °F 58% 29.99 in 10.0 mi SE 6.9 mph - N/A   Clear
11:15 PM 32.0 °F 25.6 °F 18.5 °F 58% 29.98 in 10.0 mi SE 6.9 mph - N/A   Clear
11:35 PM 31.8 °F 26.2 °F 18.3 °F 57% 29.98 in 10.0 mi SSE 5.8 mph - N/A   Clear
11:55 PM 31.3 °F 25.6 °F 18.3 °F 59% 29.98 in 10.0 mi SSE 5.8 mph - N/A   Clear